{"data":{"norad_id":67722,"epoch":"2026-05-25T02:38:52.484352Z","epoch_age_seconds":59314,"freshness":"FRESH","line1":"1 67722U 26026B   26145.11032968  .00014885  00000+0  46237-3 0  9998","line2":"2 67722  97.2852 198.5732 0000304 178.9970 181.1273 15.33451964 15833","mean_motion":15.33451964,"eccentricity":3.04e-5,"inclination_deg":97.2852,"raan_deg":198.5732,"arg_perigee_deg":178.997,"mean_anomaly_deg":181.1273,"bstar":0.00046237,"rev_number":1583,"period_min":93.905778192345,"perigee_km":465.31440734472,"apogee_km":465.73050183956,"semimajor_km":6843.6594545921,"source":"CELESTRAK","updated_at":"2026-05-25T13:38:21.684964Z"}}